カタログに戻る

SATCOM 3 DEB

運用中HEO
NORAD 32993·DEBRIS·🇺🇸 United States

打ち上げ Dec 7, 1979 から Cape Canaveral Space Force Station

Loading…

次のパス (今後24時間)

TLE

最新Source: Space-Track

元期: Sep 14, 2026, 12:34 UTC

1 32993U 79101U   26257.52427238 -.00000110  00000-0  00000-0 0  9992
2 32993   7.2376 162.0071 4629658 320.6934 299.5651  1.81392944130324

AllMySatでSATCOM 3 DEBをリアルタイム追跡

Download on the App Store